Location: Unspecified
(48.8656°N, 0.0000°E)
Time: 04:12:30
(UTC+00:00)

Vanguard 3 - Pass Details

Date: 24 June 2019
Orbit: 507 x 3264 km, 33.4° (Epoch: 20 July)

Event Time Altitude Azimuth Distance (km) Brightness Sun altitude
Rises 13:59:38 0° 257° (WSW) 5,357 11.8 55.7°
Reaches altitude 10° 14:04:40 10° 245° (WSW) 3,803 11.3 55.0°
Maximum altitude 14:11:11 22° 200° (SSW) 2,288 10.3 54.1°
Drops below altitude 10° 14:15:42 10° 152° (SSE) 2,527 9.8 53.5°
Sets 14:18:17 0° 135° (SE) 3,184 10.1 53.1°
